Location: Nitra
(0.0000°N, 18.0833°E)
Time: 06:25:01
(UTC+01:00)

Hubble Space Telescope - Visible Passes

Search period start: 18 January 2026 00:00
Search period end: 28 January 2026 00:00
Orbit: 479 x 481 km, 28.5° (Epoch: 17 January)

Date Brightness Start Highest point End Pass type
(mag) Time Alt. Az. Time Alt. Az. Time Alt. Az.
18 Jan 3.1 04:05:06 14° NE 04:05:06 14° NE 04:06:31 10° ENE visible
18 Jan 3.1 19:07:54 10° NW 19:09:04 11° NNW 19:10:13 10° N visible
19 Jan 0.6 05:11:23 16° WNW 05:14:17 72° SSW 05:18:03 10° SE visible
19 Jan 3.1 18:38:15 10° NW 18:39:20 11° NNW 18:40:24 10° N visible
20 Jan 0.5 04:43:30 44° W 04:44:33 71° SSW 04:48:19 10° SE visible
21 Jan 1.2 04:15:36 51° SSE 04:15:36 51° SSE 04:18:34 10° SE visible
22 Jan 3.2 03:47:39 19° SE 03:47:39 19° SE 03:48:48 10° SE visible
22 Jan 3.0 05:24:01 10° SW 05:24:56 11° SSW 05:25:52 10° SSW visible
23 Jan 3.0 04:54:21 10° SW 04:55:10 11° SSW 04:55:59 10° SSW visible
24 Jan 3.2 04:25:45 10° SSW 04:25:45 10° SSW 04:26:06 10° SSW visible
